Temperature
19 18 18 18 18 18 18 18 18 17 17 17 17 17 17 17 17 17 17 17 17 17 16 16 16 16 16 16 16 16 16 16 16 15 15 15 15 15 15 15 15 15 15
20 19 18 18 18 18 18 18 17 17 17 17 17 17 17 16 16 17 17 17 17 17 16 16 16 16 16 16 16 16 16 16 16 15 15 15 15 15 15 15 15 15 15
19 18 18 18 18 18 18 17 17 17 17 16 16 16 16 16 16 16 16 16 16 16 16 16 16 16 16 16 16 16 16 16 16 15 15 15 15 15 15 15 15 15 15
19 18 18 17 17 18 17 17 17 17 16 16 16 16 16 16 16 16 16 16 16 16 16 16 16 16 16 16 16 16 16 16 15 15 15 15 15 15 15 15 15 15 15
19 18 18 17 17 17 17 17 17 16 16 16 16 16 16 16 16 16 16 17 16 16 16 16 16 16 16 16 16 16 16 16 15 15 15 15 15 15 15 15 15 15 15
18 18 18 17 17 17 17 17 16 16 16 16 16 16 16 16 16 16 16 16 16 16 17 16 16 16 16 16 16 16 15 15 15 15 15 15 15 15 15 15 15 15 15
18 18 17 17 17 17 17 17 16 16 16 16 16 16 16 16 16 16 16 16 16 16 16 16 16 16 16 16 16 15 15 15 15 15 15 15 15 15 14 14 14 14 14
17 17 17 17 17 17 17 16 16 16 16 16 16 16 16 16 16 16 16 16 16 16 16 16 16 16 16 16 15 15 15 15 15 15 15 15 14 14 14 14 14 14 14
17 17 17 16 16 16 16 16 16 16 16 16 16 16 16 16 16 16 16 16 16 16 16 16 16 16 16 15 15 15 15 15 15 15 14 14 14 14 14 14 14 14 14
16 16 16 16 16 16 16 16 16 16 16 16 16 16 16 16 16 16 16 16 16 16 16 16 16 16 16 15 15 15 15 15 14 14 14 14 14 14 14 14 14 13 13
15 16 16 16 16 16 16 15 15 15 15 15 16 16 15 15 16 16 16 16 16 16 16 16 16 16 15 15 15 15 15 15 14 14 14 14 14 14 14 13 13 13 13
15 15 15 15 15 15 15 15 15 15 15 15 15 15 15 15 16 16 16 16 16 16 16 16 16 16 15 15 15 15 14 14 14 14 14 14 14 14 14 13 13 13 13
15 15 15 15 15 15 15 15 15 15 15 15 15 15 15 15 15 15 15 16 16 16 16 16 16 15 15 15 15 14 14 14 14 14 14 14 14 14 13 13 13 13 13
14 14 14 14 14 15 15 15 15 15 15 15 15 15 15 15 15 15 15 15 15 15 16 16 16 15 15 15 15 14 14 14 14 14 14 14 14 13 13 13 13 13 13
14 14 14 14 14 14 14 14 14 15 15 15 15 15 15 15 15 15 15 15 15 15 15 15 15 15 15 15 14 14 14 14 14 14 14 14 14 13 13 13 13 13 13
13 13 14 14 14 14 14 14 14 14 14 14 14 14 15 15 15 15 15 15 15 15 15 15 15 15 15 15 14 14 14 14 14 14 14 14 13 13 13 13 13 13 13
13 13 13 13 13 14 14 14 14 14 14 14 14 14 14 15 15 15 15 15 15 15 15 15 15 15 14 14 14 14 14 14 14 14 14 14 13 13 13 13 13 13 12
13 13 13 13 13 13 13 13 14 14 14 14 14 14 14 14 15 15 15 15 15 15 15 15 15 14 14 14 14 14 14 14 14 14 14 13 13 13 13 13 13 12 12
13 13 13 13 13 13 13 13 13 13 13 14 14 14 14 14 14 15 15 15 15 15 14 14 14 14 14 14 14 14 14 14 14 14 13 13 13 13 13 13 13 12 12
12 12 12 12 12 12 13 13 13 13 13 13 13 14 14 14 14 14 15 15 14 14 14 14 14 14 14 14 14 13 13 13 13 13 13 13 13 13 13 13 12 12 12
12 12 12 12 12 12 12 12 13 13 13 13 13 13 14 13 14 14 14 14 14 14 14 14 14 14 13 13 13 13 13 13 13 13 13 13 13 13 12 12 12 12 11
11 11 12 12 12 12 12 12 12 13 13 13 13 13 13 13 13 13 14 14 14 14 14 14 14 13 13 13 13 13 12 12 13 13 13 12 12 12 12 12 12 11 11
11 11 11 12 12 12 12 12 12 12 12 12 13 13 13 13 13 13 13 14 14 14 14 14 13 13 13 13 13 13 13 13 12 12 12 12 12 12 12 12 11 11 11
11 11 11 11 11 12 12 12 12 12 12 12 12 12 12 13 13 13 13 13 13 13 13 13 13 13 13 13 13 13 13 13 12 12 11 12 11 11 11 11 11 11 10
10 11 11 11 11 11 11 11 11 11 12 12 12 12 12 12 12 12 12 12 13 13 13 13 13 13 13 13 12 12 12 12 12 12 11 11 11 11 11 11 10 10 10
10 10 10 10 11 11 11 11 11 11 11 11 11 12 12 12 12 12 12 12 12 12 12 12 12 12 12 12 12 12 12 12 12 12 12 11 11 11 11 10 10 10 9
Wind_Speed
9 14 22 22 20 20 19 19 19 19 19 19 19 19 20 20 20 20 19 19 18 18 18 18 18 18 18 18 18 17 17 17 16 16 15 15 16 16 15 15 14 14 15
13 18 23 22 21 20 20 19 19 19 19 19 19 20 20 20 20 19 19 18 18 18 18 18 18 18 18 18 17 16 16 16 15 15 14 14 15 15 15 14 13 12 14
16 18 22 21 20 20 19 19 19 19 19 19 19 20 20 20 20 19 19 18 18 18 18 18 17 17 17 16 15 14 13 13 13 12 12 11 13 14 14 14 13 13 13
16 17 19 21 20 20 20 19 20 20 20 20 19 20 20 20 20 19 19 18 18 18 18 17 17 16 15 14 13 12 12 11 11 11 10 10 10 12 12 12 12 12 12
13 16 19 21 20 20 19 19 19 20 20 19 19 20 20 20 20 19 19 18 18 18 18 17 16 15 14 12 11 11 11 11 12 12 11 10 9 11 12 12 12 11 11
11 14 18 22 21 19 19 19 19 19 20 19 19 20 20 20 20 19 19 19 18 18 17 16 15 14 12 11 10 10 11 12 12 11 10 9 9 11 11 10 10 10 10
9 11 17 21 21 20 19 19 19 19 20 20 20 20 20 21 20 20 20 19 19 18 17 16 14 13 11 9 9 9 10 10 10 9 8 8 8 10 10 9 9 9 9
8 9 15 20 20 20 19 19 19 19 20 20 20 20 20 21 21 20 20 19 19 18 16 15 14 12 10 9 8 8 9 8 8 7 7 6 8 8 8 8 7 7 7
6 7 9 14 17 18 19 19 19 19 19 19 19 19 20 21 21 21 20 20 19 18 16 15 13 12 9 7 6 6 6 7 8 6 5 6 7 7 6 6 5 5 5
4 5 6 10 12 13 15 18 19 19 19 19 19 19 19 20 21 21 20 19 18 17 16 14 13 11 8 6 5 4 5 5 6 5 6 7 7 6 5 4 3 3 3
4 4 5 7 9 11 13 15 16 17 18 18 18 19 19 17 18 18 18 19 18 17 15 14 12 10 8 5 4 3 3 4 5 5 6 7 7 6 4 3 2 2 1
5 5 5 7 7 9 11 12 12 13 14 15 15 17 16 15 15 16 18 19 18 16 15 13 12 9 7 5 3 2 2 4 6 6 7 8 7 6 4 3 2 2 2
6 5 4 5 7 7 6 8 8 9 11 12 14 16 15 13 13 13 13 14 14 14 11 11 9 8 7 6 4 4 4 5 6 7 8 8 7 5 4 3 3 3 3
5 6 6 5 6 7 7 7 7 7 7 8 12 15 13 8 8 9 9 10 11 11 9 8 7 7 7 7 6 5 5 5 7 7 8 8 6 5 4 3 2 2 3
6 7 7 6 7 7 7 7 8 8 8 10 12 14 14 9 8 8 8 10 10 10 9 7 6 6 6 6 6 6 5 6 7 8 7 8 6 5 4 2 2 2 2
7 8 8 8 7 8 8 8 8 8 9 10 11 13 15 12 9 8 7 7 9 11 10 9 7 5 4 4 4 5 5 6 7 7 7 7 6 5 3 2 2 2 2
8 8 8 8 8 9 9 9 8 8 9 8 10 13 14 14 12 9 8 7 8 11 10 8 6 5 3 3 4 4 4 5 6 7 7 7 6 4 3 2 1 1 1
8 8 8 7 8 9 9 8 7 7 8 8 10 12 13 14 14 10 8 7 9 10 7 5 5 4 4 3 3 3 2 3 5 6 6 6 5 4 3 2 1 0 1
8 8 7 7 8 8 8 7 7 7 7 7 8 9 12 13 14 10 7 7 10 7 5 6 4 4 4 4 3 2 2 2 3 5 5 5 6 5 5 3 2 2 2
8 8 7 7 8 7 6 5 5 6 6 6 6 8 11 11 13 10 7 8 8 6 6 5 5 3 3 4 3 2 1 1 2 3 4 5 6 6 6 5 4 3 3
8 8 8 8 8 7 6 6 6 7 6 6 6 8 10 10 11 9 7 8 8 8 8 7 4 4 3 3 2 1 1 1 1 2 3 3 4 6 6 6 5 4 4
8 7 7 8 8 8 7 6 5 5 5 5 5 7 9 10 11 10 9 9 8 7 8 7 5 3 3 4 4 3 1 1 1 1 2 3 3 5 5 6 6 6 5
5 7 7 7 7 7 6 5 5 4 3 4 4 5 7 9 9 9 9 8 8 8 8 8 7 7 5 3 3 4 4 5 2 1 2 2 3 3 3 5 6 6 6
3 4 5 7 6 6 7 6 7 6 5 4 4 4 5 6 7 8 8 8 8 7 8 8 7 5 7 5 3 2 3 3 3 2 1 1 3 3 3 3 5 5 6
2 4 5 5 5 5 6 7 7 6 4 3 4 5 5 6 7 8 8 8 7 7 7 7 6 6 5 6 5 3 2 1 2 3 3 2 1 2 2 3 4 5 6
2 3 5 6 5 5 5 5 6 6 5 5 5 5 5 5 5 7 7 7 7 6 7 7 7 7 6 6 5 4 4 4 4 4 4 4 3 2 2 2 3 4 5
Wind_Direction
168 167 168 165 161 157 155 153 151 148 146 143 141 137 134 132 131 131 130 129 127 125 122 117 112 110 108 106 102 99 96 92 87 83 79 79 82 84 82 78 75 72 73
159 165 166 165 163 160 158 157 155 153 151 149 146 143 140 138 136 135 134 133 130 127 123 118 114 113 111 108 105 102 99 95 90 86 80 79 81 82 82 80 79 76 74
153 161 164 164 163 161 161 159 157 156 156 154 152 150 146 143 141 140 138 136 133 128 124 120 117 116 114 111 108 105 102 99 95 89 84 81 83 85 83 79 77 74 73
153 159 164 164 163 162 161 161 160 160 160 158 157 155 151 149 146 144 142 139 135 130 126 122 120 120 118 113 108 104 102 101 97 96 87 85 86 87 84 82 78 74 72
152 159 164 164 164 164 163 162 162 163 162 160 160 158 156 153 150 149 146 142 136 131 128 126 125 125 121 114 106 100 101 101 98 101 95 90 89 90 87 83 80 76 73
152 158 164 165 166 166 164 164 165 165 165 163 162 160 159 157 153 151 147 142 137 134 132 131 131 130 126 116 106 102 105 103 100 106 101 96 96 96 92 88 84 80 75
155 161 166 167 168 168 166 165 166 166 165 164 163 162 162 159 155 151 146 143 141 139 138 138 138 137 132 122 111 106 112 108 107 113 110 106 107 102 97 92 87 83 78
153 162 167 169 169 169 168 168 167 166 165 165 166 165 163 160 156 152 150 148 146 145 144 143 143 143 140 131 118 112 117 113 113 116 120 120 119 111 104 97 91 85 81
146 158 166 168 171 171 170 169 167 166 167 167 166 166 163 160 156 155 154 153 151 150 149 148 148 150 148 143 132 120 122 125 125 131 138 141 134 122 113 105 98 90 84
135 155 167 165 165 169 169 169 167 166 165 165 164 160 158 156 156 156 156 156 155 155 155 155 156 160 159 156 151 137 130 135 141 151 156 156 149 136 130 122 112 102 91
149 162 174 170 165 167 168 169 165 164 163 162 160 157 154 154 155 158 159 159 158 159 160 161 164 168 170 175 174 162 149 158 160 164 169 168 164 157 153 151 147 147 150
176 177 175 174 171 168 172 166 165 163 161 161 161 157 156 156 159 161 162 162 162 164 166 168 171 175 180 192 204 200 189 179 175 180 186 180 177 174 175 180 191 208 221
189 181 177 180 175 173 170 165 165 162 159 160 163 161 159 157 159 160 163 165 165 167 170 173 175 182 191 202 214 214 203 192 190 195 196 189 186 186 188 201 222 239 240
209 193 185 189 185 179 174 176 167 165 164 165 169 166 162 161 162 165 169 170 169 174 174 177 181 192 200 210 215 215 209 197 192 194 198 194 191 192 197 215 236 243 238
217 201 191 193 196 186 179 183 174 172 172 172 171 174 172 166 166 170 173 174 176 178 181 182 186 194 204 214 217 207 202 196 188 187 189 191 188 187 190 209 238 249 251
221 208 191 192 198 191 186 185 176 176 175 173 175 178 177 172 172 173 174 177 181 184 186 187 189 192 204 202 202 201 198 188 184 183 183 186 188 185 188 206 235 240 248
217 209 195 193 192 187 185 187 177 177 175 176 177 177 178 177 175 174 174 179 186 186 185 187 192 191 193 195 199 194 179 168 166 173 177 179 182 181 182 194 208 225 247
208 200 193 194 188 187 182 182 176 175 174 177 177 176 178 180 178 174 176 184 187 185 182 184 187 183 192 189 192 192 172 157 155 162 168 173 172 171 170 172 147 102 141
199 190 185 187 185 183 175 174 172 175 179 176 174 177 180 182 182 178 180 184 184 182 184 190 188 180 184 185 181 173 170 168 162 153 156 166 167 164 161 149 123 89 80
194 183 179 181 180 178 169 159 164 174 182 178 176 179 179 183 184 180 180 183 183 183 185 185 180 179 180 176 164 152 168 180 161 163 165 156 154 154 149 137 121 100 93
185 180 184 180 177 170 169 168 173 183 183 184 184 182 182 185 185 183 182 182 184 189 188 183 176 176 182 158 127 98 359 1 185 183 163 152 146 147 141 134 128 118 101
187 187 189 184 180 176 180 175 174 172 179 182 185 185 188 189 188 188 184 187 186 186 183 183 171 171 182 173 154 142 206 295 275 196 178 170 160 142 136 135 131 124 114
184 183 188 183 180 178 174 160 154 154 153 173 189 192 196 191 191 190 187 185 186 186 189 189 181 177 186 198 178 163 177 216 214 240 217 186 170 160 149 138 136 133 127
188 173 172 167 170 174 170 170 170 178 182 188 192 196 201 193 188 188 187 187 188 188 190 192 186 182 176 189 197 202 190 165 169 196 246 200 177 179 177 165 148 140 135
161 155 162 149 152 163 163 172 175 179 180 176 177 186 199 197 192 193 186 185 186 189 192 192 187 185 185 189 188 183 189 189 174 176 206 209 202 209 187 173 159 150 144
104 134 136 137 139 136 141 156 169 168 168 171 178 186 199 200 197 199 191 188 190 190 194 196 194 190 193 195 197 192 189 188 195 188 199 200 204 209 183 171 166 161 154
Height
1492 1495 1498 1500 1503 1506 1508 1510 1512 1514 1516 1519 1521 1523 1525 1526 1528 1530 1531 1532 1534 1535 1536 1537 1538 1538 1539 1540 1540 1541 1541 1541 1542 1542 1542 1542 1543 1542 1542 1542 1542 1541 1541
1491 1494 1497 1500 1503 1505 1507 1509 1511 1514 1516 1518 1521 1523 1525 1527 1528 1530 1532 1533 1535 1536 1537 1538 1539 1540 1541 1541 1542 1542 1543 1543 1543 1544 1544 1544 1544 1544 1544 1544 1543 1543 1543
1491 1494 1496 1499 1502 1504 1507 1509 1511 1513 1516 1518 1521 1523 1525 1527 1529 1530 1532 1534 1535 1537 1538 1539 1540 1541 1542 1543 1543 1544 1544 1545 1545 1545 1546 1546 1546 1546 1545 1545 1545 1545 1544
1492 1494 1496 1499 1502 1504 1506 1508 1511 1513 1515 1518 1521 1523 1525 1527 1529 1531 1533 1534 1536 1538 1539 1541 1542 1543 1544 1544 1545 1546 1546 1546 1547 1547 1547 1547 1547 1547 1547 1547 1546 1546 1545
1492 1494 1496 1498 1501 1504 1506 1508 1510 1513 1515 1518 1520 1523 1525 1527 1529 1531 1533 1535 1537 1538 1540 1542 1543 1544 1545 1546 1546 1547 1547 1548 1548 1548 1548 1548 1548 1548 1548 1548 1547 1547 1547
1492 1494 1496 1498 1501 1503 1505 1508 1510 1512 1515 1517 1520 1522 1525 1527 1529 1531 1533 1535 1537 1539 1541 1542 1544 1545 1546 1547 1548 1548 1549 1549 1549 1550 1550 1550 1549 1549 1549 1549 1548 1548 1547
1492 1494 1496 1498 1500 1503 1505 1507 1509 1512 1514 1517 1519 1522 1525 1527 1529 1531 1533 1535 1537 1539 1541 1543 1545 1546 1547 1548 1549 1549 1550 1550 1551 1551 1551 1551 1551 1550 1550 1550 1549 1549 1548
1491 1493 1495 1497 1500 1502 1504 1507 1509 1511 1514 1516 1519 1521 1524 1527 1529 1531 1534 1536 1538 1540 1542 1544 1545 1547 1548 1549 1550 1550 1551 1551 1551 1552 1552 1552 1551 1551 1551 1550 1550 1549 1549
1490 1492 1494 1496 1499 1501 1504 1506 1508 1511 1513 1516 1518 1521 1523 1526 1529 1531 1534 1536 1538 1540 1542 1544 1546 1547 1548 1549 1550 1551 1551 1552 1552 1552 1552 1552 1552 1551 1551 1551 1550 1550 1549
1489 1491 1493 1495 1497 1500 1502 1505 1507 1510 1512 1515 1518 1520 1523 1525 1528 1531 1533 1536 1538 1540 1542 1544 1546 1547 1549 1550 1551 1551 1552 1552 1552 1552 1552 1552 1552 1552 1551 1551 1550 1549 1549
1488 1489 1491 1493 1495 1498 1501 1503 1506 1509 1511 1514 1517 1519 1522 1524 1527 1530 1533 1535 1538 1540 1542 1544 1546 1547 1549 1550 1551 1551 1552 1552 1552 1552 1552 1552 1552 1551 1551 1550 1550 1549 1548
1485 1487 1489 1491 1493 1496 1498 1502 1504 1507 1510 1512 1515 1518 1520 1523 1526 1529 1532 1535 1537 1540 1541 1543 1545 1547 1548 1549 1550 1551 1552 1552 1552 1552 1552 1552 1552 1551 1550 1550 1549 1548 1548
1481 1483 1485 1489 1491 1493 1496 1499 1502 1505 1508 1511 1514 1516 1519 1522 1525 1527 1530 1533 1536 1538 1540 1542 1544 1546 1547 1549 1550 1550 1551 1551 1551 1551 1551 1551 1551 1550 1550 1549 1548 1547 1547
1478 1480 1482 1486 1488 1490 1493 1497 1500 1502 1505 1508 1511 1514 1517 1520 1523 1525 1528 1531 1534 1537 1539 1541 1543 1545 1546 1548 1549 1549 1550 1550 1550 1551 1551 1550 1550 1549 1549 1548 1547 1546 1546
1475 1477 1479 1482 1485 1488 1490 1494 1497 1500 1503 1506 1509 1512 1515 1517 1520 1524 1527 1530 1532 1535 1537 1540 1542 1543 1545 1546 1547 1548 1548 1549 1549 1549 1549 1549 1549 1548 1547 1546 1546 1545 1545
1471 1473 1476 1479 1482 1485 1487 1490 1494 1498 1501 1504 1507 1510 1513 1515 1518 1522 1525 1528 1530 1533 1536 1538 1540 1542 1543 1544 1545 1546 1547 1547 1547 1547 1547 1547 1547 1547 1546 1545 1544 1544 1543
1467 1469 1471 1475 1478 1480 1483 1487 1490 1494 1497 1500 1504 1507 1510 1513 1516 1519 1522 1525 1528 1531 1534 1536 1538 1540 1541 1542 1543 1544 1545 1545 1545 1545 1545 1545 1545 1545 1544 1543 1543 1542 1541
1462 1464 1467 1470 1473 1476 1479 1483 1486 1490 1494 1497 1501 1504 1508 1511 1514 1517 1520 1523 1526 1528 1531 1533 1535 1537 1539 1540 1541 1542 1542 1543 1543 1543 1543 1543 1543 1542 1542 1541 1541 1540 1540
1457 1460 1462 1466 1469 1472 1475 1479 1483 1487 1490 1494 1497 1500 1504 1508 1511 1514 1517 1520 1523 1525 1528 1530 1532 1534 1536 1537 1538 1539 1540 1540 1541 1541 1541 1541 1540 1540 1539 1539 1539 1538 1538
1452 1455 1458 1461 1465 1468 1471 1475 1479 1483 1486 1490 1493 1496 1500 1504 1507 1510 1514 1517 1520 1522 1525 1527 1529 1531 1533 1535 1536 1537 1537 1538 1538 1538 1538 1538 1537 1537 1537 1536 1536 1536 1535
1447 1450 1454 1457 1461 1464 1466 1470 1474 1478 1482 1486 1489 1493 1496 1500 1503 1507 1510 1513 1516 1518 1520 1523 1526 1528 1530 1532 1533 1534 1534 1535 1535 1535 1535 1535 1534 1534 1534 1534 1533 1533 1533
1443 1446 1449 1453 1456 1460 1463 1467 1471 1474 1478 1482 1485 1489 1492 1496 1499 1503 1505 1508 1511 1514 1516 1519 1522 1524 1526 1528 1529 1530 1530 1532 1531 1531 1531 1531 1531 1531 1531 1530 1530 1530 1530
1438 1442 1445 1449 1453 1456 1460 1464 1468 1471 1474 1479 1482 1485 1488 1492 1495 1498 1502 1504 1507 1510 1512 1514 1517 1519 1521 1523 1525 1526 1526 1525 1526 1527 1527 1527 1527 1527 1527 1527 1527 1526 1526
1436 1439 1442 1446 1450 1454 1457 1460 1463 1467 1470 1473 1477 1481 1484 1488 1491 1494 1497 1500 1502 1505 1508 1510 1512 1514 1516 1518 1519 1521 1522 1521 1522 1521 1522 1522 1523 1523 1523 1523 1523 1522 1522
1434 1437 1440 1444 1447 1451 1454 1457 1460 1464 1467 1471 1474 1477 1480 1483 1486 1490 1492 1495 1498 1501 1503 1505 1507 1509 1511 1513 1514 1515 1516 1517 1517 1517 1517 1517 1518 1518 1518 1518 1518 1518 1518
1434 1436 1439 1442 1446 1449 1451 1454 1457 1460 1464 1467 1470 1472 1475 1478 1482 1485 1488 1491 1493 1496 1498 1500 1502 1504 1506 1508 1509 1510 1511 1512 1511 1512 1511 1512 1513 1513 1513 1514 1514 1514 1514